STARLINK-34287, 64670

Orbit data source: Space-Track

STARLINK-34287, 64670 is a payload satellite owned by SpaceX/Seattle (US) in LEO that was launched on Sat, 28 Jun 2025 UTC via an FALCON 9 launch vehicle from the Air Force Eastern Test Range (AFETR). Payload-class satellites include a variety of spacecraft equipped with specific instruments for various scientific and technological missions. These include communications satellites like Starlink; space stations such as the ISS; scientific satellites like the Hubble; Earth observation satellites from companies like Planet Labs, Umbra, and HawkEye 360; GPS; miniature CubeSats for education and research; and military/defense satellites.

Loading next visibility...
Identifier
64670, 2025-139G
Orbit
LEO
Country
Flag of USUS
Related business
Manufacturer
SpaceX/Seattle
Mission
Operational Commercial Communications
Bus & Motor
STARLINK V2MO, Unknown motor
Mass
575 kg wet, ~530 kg dry
Launch date (UTC)
2025-06-28 (1 year ago)
Launch vehicle
FALCON 9
Launch site
Air Force Eastern Test Range (AFETR)
Object type
Payload
Rocket body
Debris
Shape & HBR
Box + 2 Pan, 17.7 m
Radar Cross Section
36.964 m², Large (>1 m²)

Expand to show TLE details & history
Last TLE update: 14 hours ago

TLE from 14 hours ago
0 STARLINK-34287
1 64670U 25139G   26171.27517900  .00018715  00000-0  56341-3 0  9995
2 64670  53.1604   8.8974 0001232 104.8643 255.2496 15.34412788 56012
Epoch: 2026-06-20T06:36Z
TLE epoch observation values (Epoch: 2026-06-20T06:36:15.465Z)
Latitude
-0.00004°
Longitude
1.34079°
Altitude
463.781 km
Speed
7.636 km/s
True Right ascension
00h 35m 35s
True Declination
0° 00' 00"
Sunlit
Object was in daylight at epoch
Visualization orbit readout
Latitude
Unknown
Longitude
Unknown
Altitude
Unknown
Speed
Unknown
Apparent Right ascension
Unknown
Apparent Declination
Unknown
Sunlit
N/A
Visualization observer readout
Local Sidereal Time
07:20:23
Azimuth
Unknown
Elevation
Unknown
Doppler factor
Unknown
Orbital elements
Apogee altitude
463.765 km
Perigee altitude
462.079 km
Semi-major axis
6,841.059 km
Eccentricity
0.00012
Inclination
53.1604°
RAAN
8.8974°
Arg. of periapsis
104.8643°
True anomaly
255.23595°
Mean anomaly
255.2496°
Eccentric anomaly
255.24277°
Mean motion
3.83582 °/min
Orbital period
93.85 mins
BSTAR
0.00056341
Loading maneuver chart data...
Computing Atmospheric mass density...
Loading historical data...
Loading historical data...
Loading historical data...
Loading historical data...
Loading historical data...
Loading historical data...
Loading historical data...

Documentation

Showing up to 5 results
|